Location: Dessau
(51.7984°N, 12.2168°E)
Time: 06:25:51
(UTC+01:00)

ISS - Pass Details

Date: 09 January 2018
Orbit: 402 x 407 km, 51.6° (Epoch: 19 January)

Event Time Altitude Azimuth Distance (km) Brightness Sun altitude
Exits shadow 05:48:49 60° 117° (ESE) 469 -3.4 -21.6°
Drops below altitude 10° 05:51:37 10° 103° (ESE) 1,468 0.2 -21.2°
Sets 05:53:42 0° 102° (ESE) 2,329 1.6 -20.9°
